Overview Statistics Trail Chart Weather Telemetry Raw packets
 

This is the latest recevied weather packets stored in our database for station/object W8KVG. If no packets are shown the sender has not sent any weather packets the latest 10 day(s).

<< 15 16 17 18 19 20 21 >>
Time Temp. Humidity Pressure Rain* Wind** Luminosity Snow
1777836003 16.67° C 35% 1013.9 hPa 0 mm - 178 W/m² -
1777835700 16.11° C 38% 1014.2 hPa 0 mm - 881 W/m² -
1777835396 17.78° C 37% 1014 hPa 0 mm - 890 W/m² -
1777835094 17.78° C 34% 1014.1 hPa 0 mm - 816 W/m² -
1777834791 15.56° C 39% 1014 hPa 0 mm - 876 W/m² -
1777834487 16.11° C 36% 1014.4 hPa 0 mm - 824 W/m² -
1777834186 15.56° C 38% 1014.5 hPa 0 mm - 893 W/m² -
1777833883 15° C 40% 1014.4 hPa 0 mm - 878 W/m² -
1777833579 15° C 43% 1014.4 hPa 0 mm - 863 W/m² -
1777833276 14.44° C 40% 1014.6 hPa 0 mm - 957 W/m² -
1777832973 13.89° C 41% 1014.6 hPa 0 mm - 217 W/m² -
1777832672 15° C 42% 1014.4 hPa 0 mm - 695 W/m² -
1777832369 14.44° C 40% 1014.6 hPa 0 mm - 862 W/m² -
1777832066 13.89° C 40% 1014.8 hPa 0 mm - 147 W/m² -
1777831762 14.44° C 41% 1014.7 hPa 0 mm - 168 W/m² -
1777831461 13.89° C 41% 1014.6 hPa 0 mm - 751 W/m² -
1777831156 15.56° C 40% 1014.9 hPa 0 mm - 882 W/m² -
1777830854 14.44° C 39% 1015 hPa 0 mm - 922 W/m² -
1777830550 14.44° C 45% 1015.1 hPa 0 mm - 866 W/m² -
1777830248 13.89° C 42% 1015 hPa 0 mm - 198 W/m² -
1777829943 14.44° C 44% 1015.2 hPa 0 mm - 928 W/m² -
1777829640 13.89° C 42% 1015 hPa 0 mm - 880 W/m² -
1777829336 13.33° C 40% 1015.2 hPa 0 mm - 136 W/m² -
1777829034 13.33° C 44% 1015.3 hPa 0 mm - 839 W/m² -
1777828730 12.78° C 43% 1015.3 hPa 0 mm - 115 W/m² -

* Rain latest hour (hover to see other rain measurements)
** Current wind speed in m/s (hover to see current wind gust speed)